SANTA FE DAM CA US current weather conditions

sailwx.info

Wind from 291 at 3 knots gusting 8

Air temperature 11.7° C
Dewpoint 4.4° C

Last reported at 2016-Dec-08 12:57 UTC.
Time now 2016-Dec-08 14:30 UTC

Location: N 34°08' W 117°57'.
View on Google Maps.

See reports from other nearby stations

  
Tides and Currents Weather Stations Pressure Air Temp Water Temp Dewpoint Dewpoint Depression Visibility Wind Speed Wind Dir Waves Ship Positions
date/time (UTC)wind fromknots sea level pressurealtimeterstation pressurevisibilityair tempwater tempwave heightnotes
2016-Dec-08 12:57 291 3 gusting 8 11.7
2016-Dec-08 11:57 040 2 gusting 6 10.0
2016-Dec-08 10:57 287 2 gusting 12 10.0
2016-Dec-08 09:57 032 5 gusting 13 10.6
2016-Dec-08 08:57 061 4 gusting 10 11.1
2016-Dec-08 07:57 030 4 gusting 9 11.7
2016-Dec-08 06:57 023 4 gusting 11 12.2
2016-Dec-08 05:57 030 4 gusting 9 11.7
2016-Dec-08 04:57 046 3 gusting 7 11.7
2016-Dec-08 03:57 356 2 gusting 4 10.6
2016-Dec-08 02:57 254 2 gusting 6 11.7
2016-Dec-08 01:57 230 2 gusting 7 13.3
2016-Dec-08 00:57 243 2 gusting 3 13.9
2016-Dec-07 23:57 214 1 gusting 4 16.1
2016-Dec-07 22:57 044 1 gusting 10 17.8
2016-Dec-07 21:57 234 4 gusting 10 18.9
2016-Dec-07 20:57 251 2 gusting 6 18.9
2016-Dec-07 19:57 013 1 gusting 6 15.6
2016-Dec-07 18:57 160 4 gusting 8 17.2
2016-Dec-07 17:57 225 2 gusting 8 16.1
2016-Dec-07 16:57 027 5 gusting 12 13.3
2016-Dec-07 15:57 035 5 gusting 11 11.1
2016-Dec-07 14:57 038 6 gusting 11 10.6
2016-Dec-07 13:57 036 6 gusting 10 11.1
2016-Dec-07 12:57 279 3 gusting 8 11.1
2016-Dec-07 11:57 037 4 gusting 8 11.7
2016-Dec-07 10:57 031 3 gusting 7 12.2
2016-Dec-07 09:57 004 1 gusting 6 12.2
2016-Dec-07 08:57 049 0 gusting 4 11.1
2016-Dec-07 07:57 030 1 gusting 4 10.6
2016-Dec-07 06:57 317 2 gusting 4 11.1
2016-Dec-07 05:57 257 2 gusting 4 12.2
2016-Dec-07 04:57 224 1 gusting 4 12.8
2016-Dec-07 03:57 226 2 gusting 6 14.4
2016-Dec-07 02:57 226 2 gusting 7 13.9
2016-Dec-07 01:57 243 4 gusting 12 14.4
2016-Dec-07 00:57 215 6 gusting 11 15.0
2016-Dec-06 23:57 225 5 gusting 8 17.2
2016-Dec-06 22:57 228 4 gusting 7 17.2
2016-Dec-06 21:57 247 2 gusting 8 17.8
2016-Dec-06 20:57 208 4 gusting 19 19.4
2016-Dec-06 19:57 308 3 gusting 9 17.8
2016-Dec-06 18:57 022 2 gusting 6 18.3
2016-Dec-06 17:57 285 1 gusting 6 15.6
2016-Dec-06 16:57 030 1 gusting 7 13.9
2016-Dec-06 15:57 026 3 gusting 8 12.2
2016-Dec-06 14:57 043 4 gusting 10 11.7